User: anonymous   Login
Location: Unspecified
(17.6330°N, 0.0000°E)
Time: 22:47:25
(UTC+00:00)
Language:

Altair - Orbit

View from above orbital plane
View from above orbital plane
View from above satellite
View from above satellite

Ground track
Ground track

The orbit data is extracted from the following two-line orbital elements,

1    50U 60009B   19169.91461591 -.00000089 +00000-0 -41591-4 0  9995
2    50 047.2285 172.6732 0114289 318.9083 040.3142 12.20109334625710
Epoch (UTC): 18 June 2019 21:57:02
Eccentricity: 0.0114289
inclination: 47.2285°
perigee height: 1501 km
apogee height: 1683 km
right ascension of ascending node: 172.6732°
argument of perigee: 318.9083°
revolutions per day: 12.20109334
mean anomaly at epoch: 40.3142°
orbit number at epoch: 62571

The dashed part of the orbit path shows where the satellite is in the earth's shadow,  

DLR